Starlink 30110

operational
NORAD ID: 57474 Int'l Des: 2023-107 Owner: SPXS Country: US Constellation: starlink
LEOCIRCULAR

About Starlink 30110

Description loading...

Live Position

Loading 3D Globe...

Upcoming Passes

Altitude History

Altitude vs Time

uPlot chart will show altitude changes over time

Two-Line Element Set

1 57474U 23107T 25259.10491599 .00059442 00000-0 20545-2 0 9993
2 57474 42.9960 171.7925 0023814 181.8363 178.2405 15.28834545119271
Epoch: Sep 16, 2025 • Age: 21 hours

Current Status

Altitude 487.2 km
Velocity 7.62 km/s
Sub-Earth Point 42.03°N, 103.85°W
Launch Date Jul 28, 2023
Age 2.1 years
Type internet

Technical Details

Classification Payload
Mass 730.00 kg
Dry Mass 700.00 kg
Total Mass 730.00 kg
Length 0.30 m
Diameter 4.10 m
Span 29.00 m
Shape Box + pan
Manufacturer SPXS
Bus Type Starlink V2M
Phase Status In Orbit
Owner/State SPXS/US

Large Constellations

Loading constellations...